GFSFLT1_prec_precacc12_108.txt.gz
Total_Precipitation_Accumulation
0.00 0.00 0.00 0.00 0.00 0.00 0.00 0.00 0.00 0.00 0.00 0.00 0.01 0.03 0.02 0.21 0.33 0.47 1.04 0.55 0.34 0.19 0.05 0.02 0.02 0.01 0.00 0.00 0.00 0.00 0.00 0.00
0.00 0.00 0.00 0.00 0.00 0.00 0.00 0.00 0.00 0.00 0.00 0.00 0.01 0.03 0.02 0.20 0.40 0.37 0.90 0.60 0.18 0.22 0.05 0.01 0.05 0.01 0.00 0.00 0.00 0.00 0.00 0.00
0.00 0.00 0.00 0.00 0.00 0.00 0.00 0.00 0.00 0.00 0.00 0.00 0.00 0.01 0.04 0.08 0.64 0.43 0.57 0.69 0.16 0.12 0.04 0.01 0.04 0.01 0.00 0.00 0.00 0.00 0.00 0.00
0.00 0.00 0.00 0.00 0.00 0.00 0.00 0.00 0.00 0.00 0.00 0.00 0.01 0.02 0.05 0.07 0.61 0.77 0.57 0.57 0.27 0.07 0.05 0.02 0.01 0.00 0.00 0.00 0.00 0.00 0.00 0.00
0.00 0.00 0.00 0.00 0.00 0.00 0.00 0.00 0.00 0.00 0.00 0.01 0.01 0.02 0.04 0.07 0.31 0.56 0.64 0.47 0.34 0.13 0.06 0.02 0.01 0.00 0.01 0.00 0.00 0.00 0.00 0.00
0.00 0.00 0.00 0.00 0.00 0.00 0.00 0.00 0.00 0.00 0.00 0.00 0.01 0.02 0.05 0.07 0.23 0.55 0.61 0.62 0.39 0.27 0.16 0.07 0.04 0.02 0.02 0.01 0.00 0.00 0.00 0.00
0.00 0.00 0.00 0.00 0.00 0.00 0.00 0.00 0.00 0.00 0.00 0.00 0.01 0.01 0.02 0.04 0.09 0.50 0.67 0.59 0.45 0.29 0.27 0.17 0.10 0.10 0.07 0.06 0.02 0.00 0.00 0.01
0.00 0.00 0.00 0.00 0.00 0.00 0.00 0.00 0.01 0.00 0.00 0.00 0.00 0.01 0.01 0.01 0.01 0.11 0.45 0.62 0.44 0.34 0.26 0.24 0.17 0.14 0.17 0.12 0.10 0.02 0.01 0.01
0.00 0.00 0.00 0.00 0.00 0.00 0.00 0.00 0.00 0.00 0.01 0.00 0.00 0.00 0.00 0.00 0.00 0.01 0.05 0.30 0.33 0.38 0.32 0.26 0.26 0.23 0.25 0.26 0.23 0.15 0.05 0.03
0.00 0.00 0.00 0.00 0.00 0.00 0.00 0.00 0.00 0.00 0.00 0.00 0.00 0.00 0.00 0.00 0.00 0.00 0.02 0.12 0.33 0.36 0.40 0.31 0.30 0.31 0.30 0.31 0.28 0.28 0.15 0.08
0.00 0.00 0.00 0.00 0.00 0.01 0.00 0.00 0.00 0.00 0.00 0.00 0.00 0.00 0.00 0.00 0.01 0.01 0.01 0.05 0.19 0.20 0.25 0.31 0.30 0.31 0.29 0.30 0.25 0.23 0.24 0.13
0.01 0.00 0.00 0.02 0.02 0.01 0.00 0.00 0.00 0.00 0.00 0.00 0.00 0.00 0.00 0.00 0.00 0.01 0.01 0.02 0.10 0.21 0.17 0.19 0.24 0.21 0.22 0.21 0.20 0.19 0.18 0.15
0.01 0.02 0.03 0.05 0.06 0.03 0.01 0.00 0.00 0.00 0.00 0.00 0.00 0.00 0.00 0.00 0.00 0.00 0.00 0.01 0.02 0.08 0.18 0.17 0.16 0.16 0.11 0.18 0.14 0.12 0.10 0.10
0.04 0.06 0.07 0.12 0.11 0.05 0.01 0.00 0.00 0.00 0.00 0.00 0.00 0.00 0.00 0.00 0.00 0.00 0.00 0.00 0.01 0.00 0.03 0.09 0.12 0.10 0.05 0.05 0.10 0.07 0.04 0.02
0.07 0.14 0.16 0.18 0.20 0.16 0.06 0.01 0.00 0.00 0.00 0.00 0.00 0.00 0.00 0.00 0.00 0.00 0.00 0.00 0.00 0.00 0.00 0.01 0.03 0.07 0.03 0.04 0.01 0.01 0.00 0.02
0.03 0.15 0.31 0.17 0.17 0.17 0.12 0.10 0.05 0.02 0.00 0.00 0.00 0.00 0.00 0.00 0.00 0.00 0.00 0.00 0.00 0.00 0.00 0.00 0.00 0.01 0.01 0.02 0.01 0.00 0.00 0.00
0.07 0.02 0.03 0.09 0.12 0.10 0.06 0.09 0.11 0.10 0.04 0.01 0.00 0.00 0.00 0.00 0.00 0.00 0.00 0.00 0.00 0.00 0.00 0.00 0.00 0.00 0.00 0.00 0.00 0.00 0.00 0.01
0.02 0.03 0.04 0.01 0.07 0.11 0.09 0.11 0.13 0.08 0.07 0.11 0.07 0.01 0.00 0.00 0.00 0.00 0.00 0.00 0.00 0.00 0.00 0.00 0.00 0.00 0.02 0.01 0.01 0.00 0.02 0.05
0.00 0.00 0.01 0.00 0.01 0.03 0.13 0.13 0.11 0.14 0.12 0.10 0.09 0.09 0.04 0.00 0.00 0.00 0.00 0.00 0.00 0.00 0.00 0.01 0.01 0.02 0.04 0.02 0.03 0.02 0.06 0.10

GFSFLT1_prec_precacc12_114.txt.gz
Total_Precipitation_Accumulation
0.00 0.00 0.00 0.00 0.00 0.00 0.00 0.00 0.00 0.00 0.00 0.00 0.02 0.03 0.01 0.05 0.15 0.24 0.41 0.49 0.65 0.69 0.30 0.12 0.04 0.04 0.02 0.00 0.01 0.01 0.00 0.00
0.00 0.00 0.00 0.00 0.00 0.00 0.00 0.00 0.00 0.00 0.00 0.00 0.01 0.03 0.02 0.03 0.08 0.23 0.53 0.53 0.50 0.80 0.92 0.33 0.07 0.03 0.01 0.00 0.01 0.01 0.00 0.00
0.00 0.00 0.00 0.00 0.00 0.00 0.00 0.00 0.00 0.00 0.00 0.00 0.00 0.01 0.01 0.01 0.17 0.15 0.33 0.49 0.22 0.34 0.64 0.55 0.25 0.04 0.02 0.00 0.00 0.00 0.00 0.00
0.00 0.00 0.00 0.00 0.00 0.00 0.00 0.00 0.00 0.00 0.00 0.00 0.00 0.01 0.02 0.02 0.24 0.36 0.31 0.43 0.30 0.16 0.28 0.36 0.35 0.14 0.02 0.00 0.00 0.00 0.00 0.00
0.00 0.00 0.00 0.00 0.00 0.00 0.00 0.00 0.00 0.00 0.00 0.00 0.00 0.01 0.01 0.01 0.17 0.33 0.36 0.38 0.40 0.24 0.20 0.29 0.35 0.17 0.04 0.01 0.00 0.00 0.00 0.00
0.00 0.00 0.00 0.00 0.00 0.00 0.00 0.00 0.00 0.00 0.00 0.00 0.00 0.01 0.02 0.01 0.15 0.47 0.47 0.56 0.48 0.44 0.37 0.39 0.22 0.28 0.08 0.02 0.01 0.00 0.00 0.00
0.00 0.00 0.00 0.00 0.00 0.00 0.00 0.00 0.00 0.00 0.00 0.00 0.00 0.00 0.01 0.02 0.04 0.40 0.59 0.59 0.60 0.51 0.47 0.50 0.32 0.16 0.22 0.04 0.03 0.00 0.00 0.00
0.00 0.00 0.00 0.00 0.00 0.00 0.00 0.00 0.00 0.00 0.00 0.00 0.00 0.00 0.01 0.02 0.01 0.09 0.38 0.62 0.56 0.63 0.50 0.54 0.42 0.24 0.27 0.16 0.08 0.03 0.01 0.00
0.00 0.00 0.00 0.00 0.00 0.00 0.00 0.00 0.00 0.00 0.00 0.00 0.00 0.00 0.01 0.01 0.01 0.01 0.06 0.34 0.42 0.64 0.68 0.55 0.48 0.37 0.34 0.37 0.29 0.22 0.04 0.01
0.00 0.00 0.00 0.00 0.00 0.00 0.00 0.00 0.00 0.00 0.00 0.00 0.00 0.00 0.00 0.01 0.01 0.01 0.02 0.12 0.45 0.56 0.83 0.71 0.49 0.50 0.42 0.41 0.39 0.40 0.20 0.06
0.00 0.00 0.00 0.00 0.01 0.01 0.01 0.01 0.00 0.01 0.02 0.01 0.00 0.00 0.00 0.01 0.01 0.01 0.02 0.08 0.29 0.38 0.54 0.74 0.58 0.49 0.42 0.39 0.33 0.26 0.24 0.13
0.00 0.00 0.00 0.02 0.02 0.02 0.01 0.01 0.03 0.05 0.03 0.00 0.00 0.00 0.00 0.00 0.01 0.01 0.01 0.05 0.18 0.42 0.28 0.44 0.55 0.43 0.35 0.29 0.25 0.21 0.18 0.17
0.00 0.02 0.04 0.07 0.07 0.05 0.04 0.07 0.07 0.06 0.02 0.00 0.00 0.00 0.00 0.00 0.00 0.01 0.01 0.03 0.09 0.26 0.44 0.37 0.42 0.43 0.35 0.26 0.18 0.16 0.14 0.13
0.00 0.02 0.07 0.14 0.17 0.14 0.10 0.10 0.07 0.04 0.00 0.00 0.00 0.00 0.00 0.00 0.00 0.00 0.01 0.01 0.04 0.08 0.24 0.35 0.37 0.32 0.29 0.17 0.18 0.15 0.11 0.10
0.00 0.02 0.06 0.12 0.22 0.27 0.23 0.12 0.04 0.01 0.00 0.00 0.00 0.00 0.00 0.00 0.00 0.00 0.00 0.01 0.01 0.04 0.07 0.11 0.20 0.24 0.24 0.22 0.13 0.10 0.08 0.08
0.06 0.01 0.02 0.07 0.15 0.20 0.18 0.18 0.11 0.03 0.01 0.01 0.00 0.00 0.00 0.00 0.00 0.00 0.00 0.00 0.00 0.01 0.01 0.03 0.04 0.12 0.17 0.20 0.19 0.11 0.08 0.11
0.12 0.08 0.06 0.08 0.11 0.16 0.16 0.16 0.14 0.09 0.03 0.01 0.00 0.00 0.00 0.00 0.00 0.00 0.00 0.00 0.00 0.00 0.00 0.01 0.01 0.01 0.15 0.14 0.17 0.20 0.14 0.08
0.03 0.04 0.13 0.10 0.15 0.14 0.27 0.24 0.22 0.11 0.07 0.10 0.06 0.01 0.00 0.00 0.00 0.00 0.00 0.00 0.00 0.00 0.00 0.00 0.00 0.00 0.02 0.06 0.13 0.12 0.16 0.16
0.00 0.00 0.02 0.02 0.05 0.13 0.14 0.25 0.19 0.09 0.08 0.08 0.09 0.09 0.05 0.00 0.00 0.00 0.00 0.00 0.00 0.00 0.00 0.00 0.00 0.00 0.00 0.01 0.05 0.03 0.06 0.08

GFSFLT1_prec_precacc12_117.txt.gz
Total_Precipitation_Accumulation
0.00 0.00 0.00 0.00 0.00 0.00 0.00 0.00 0.00 0.00 0.00 0.00 0.01 0.02 0.01 0.01 0.05 0.13 0.19 0.30 0.62 0.70 0.34 0.20 0.13 0.11 0.05 0.02 0.04 0.05 0.01 0.00
0.00 0.00 0.00 0.00 0.00 0.00 0.00 0.00 0.00 0.00 0.00 0.00 0.02 0.02 0.01 0.02 0.04 0.12 0.22 0.33 0.48 0.80 0.94 0.38 0.24 0.12 0.05 0.03 0.06 0.05 0.05 0.01
0.00 0.00 0.00 0.00 0.00 0.00 0.00 0.00 0.00 0.00 0.00 0.00 0.00 0.01 0.01 0.01 0.03 0.05 0.10 0.17 0.17 0.33 0.65 0.58 0.35 0.15 0.10 0.04 0.07 0.05 0.05 0.03
0.00 0.00 0.00 0.00 0.00 0.00 0.00 0.00 0.00 0.00 0.00 0.00 0.00 0.01 0.02 0.02 0.03 0.09 0.12 0.16 0.16 0.13 0.28 0.43 0.43 0.29 0.18 0.05 0.03 0.04 0.04 0.04
0.00 0.00 0.00 0.00 0.00 0.00 0.00 0.00 0.00 0.00 0.00 0.00 0.00 0.00 0.01 0.01 0.01 0.05 0.17 0.20 0.21 0.16 0.20 0.34 0.47 0.34 0.20 0.09 0.04 0.05 0.04 0.01
0.00 0.00 0.00 0.00 0.00 0.00 0.00 0.00 0.00 0.00 0.00 0.00 0.00 0.00 0.01 0.01 0.01 0.08 0.20 0.33 0.33 0.31 0.32 0.41 0.37 0.51 0.26 0.11 0.08 0.05 0.03 0.01
0.00 0.00 0.00 0.00 0.00 0.00 0.00 0.00 0.00 0.00 0.00 0.00 0.00 0.00 0.01 0.01 0.01 0.09 0.26 0.36 0.50 0.43 0.38 0.50 0.46 0.35 0.46 0.16 0.11 0.06 0.01 0.02
0.00 0.00 0.00 0.00 0.00 0.00 0.00 0.00 0.00 0.00 0.00 0.00 0.00 0.00 0.01 0.01 0.01 0.04 0.18 0.46 0.46 0.54 0.41 0.45 0.46 0.28 0.33 0.34 0.18 0.14 0.06 0.02
0.00 0.00 0.00 0.00 0.00 0.00 0.00 0.00 0.00 0.00 0.00 0.00 0.00 0.00 0.01 0.01 0.01 0.01 0.05 0.30 0.34 0.51 0.54 0.49 0.52 0.34 0.32 0.43 0.37 0.25 0.12 0.07
0.00 0.00 0.00 0.00 0.00 0.00 0.00 0.01 0.01 0.01 0.00 0.00 0.00 0.00 0.00 0.01 0.01 0.01 0.03 0.11 0.39 0.43 0.67 0.62 0.46 0.51 0.43 0.44 0.47 0.41 0.29 0.13
0.00 0.00 0.00 0.00 0.01 0.01 0.01 0.01 0.01 0.01 0.02 0.01 0.00 0.00 0.00 0.01 0.01 0.01 0.02 0.07 0.23 0.31 0.46 0.65 0.54 0.42 0.49 0.47 0.48 0.42 0.43 0.28
0.00 0.00 0.00 0.00 0.02 0.02 0.02 0.02 0.04 0.05 0.03 0.01 0.00 0.00 0.00 0.00 0.02 0.02 0.02 0.04 0.15 0.33 0.21 0.38 0.56 0.47 0.47 0.43 0.40 0.44 0.43 0.41
0.00 0.01 0.01 0.02 0.04 0.05 0.05 0.07 0.08 0.06 0.03 0.02 0.00 0.00 0.00 0.01 0.01 0.01 0.01 0.03 0.08 0.23 0.38 0.31 0.46 0.49 0.47 0.41 0.35 0.31 0.31 0.33
0.00 0.01 0.03 0.07 0.11 0.13 0.12 0.11 0.09 0.05 0.03 0.01 0.00 0.00 0.00 0.01 0.01 0.01 0.01 0.01 0.04 0.08 0.24 0.35 0.40 0.35 0.34 0.29 0.35 0.27 0.19 0.17
0.00 0.00 0.01 0.05 0.15 0.22 0.22 0.16 0.09 0.04 0.01 0.01 0.01 0.01 0.00 0.00 0.01 0.01 0.01 0.01 0.01 0.04 0.08 0.13 0.24 0.33 0.29 0.28 0.20 0.16 0.10 0.08
0.06 0.01 0.00 0.02 0.10 0.16 0.16 0.15 0.12 0.05 0.02 0.01 0.01 0.01 0.01 0.00 0.01 0.01 0.01 0.01 0.01 0.01 0.02 0.05 0.08 0.18 0.22 0.23 0.20 0.12 0.10 0.12
0.12 0.08 0.06 0.04 0.08 0.15 0.15 0.16 0.12 0.06 0.03 0.02 0.02 0.01 0.01 0.01 0.01 0.01 0.01 0.01 0.01 0.01 0.01 0.01 0.01 0.03 0.23 0.20 0.20 0.21 0.15 0.10
0.02 0.04 0.13 0.10 0.14 0.15 0.28 0.22 0.20 0.10 0.04 0.06 0.05 0.01 0.00 0.00 0.01 0.01 0.01 0.01 0.01 0.01 0.01 0.00 0.00 0.00 0.03 0.07 0.16 0.14 0.19 0.19
0.00 0.00 0.02 0.02 0.05 0.13 0.16 0.31 0.28 0.30 0.22 0.10 0.08 0.05 0.02 0.00 0.00 0.01 0.01 0.01 0.01 0.01 0.01 0.01 0.00 0.00 0.00 0.01 0.06 0.03 0.06 0.08

GFSFLT1_prec_precacc12_123.txt.gz
Total_Precipitation_Accumulation
0.00 0.00 0.00 0.00 0.00 0.00 0.00 0.00 0.00 0.00 0.00 0.00 0.00 0.01 0.01 0.01 0.01 0.01 0.02 0.04 0.05 0.19 0.24 0.28 0.20 0.14 0.07 0.02 0.05 0.06 0.03 0.06
0.00 0.00 0.00 0.00 0.00 0.00 0.00 0.00 0.00 0.00 0.00 0.00 0.00 0.01 0.01 0.01 0.01 0.01 0.01 0.02 0.07 0.21 0.38 0.30 0.31 0.16 0.06 0.03 0.06 0.07 0.06 0.04
0.00 0.00 0.00 0.00 0.00 0.00 0.00 0.00 0.00 0.00 0.00 0.00 0.00 0.00 0.00 0.00 0.01 0.01 0.01 0.01 0.02 0.09 0.39 0.41 0.30 0.18 0.12 0.08 0.10 0.08 0.07 0.04
0.00 0.00 0.00 0.00 0.00 0.00 0.00 0.00 0.00 0.00 0.00 0.00 0.00 0.01 0.01 0.01 0.02 0.02 0.02 0.02 0.02 0.03 0.19 0.34 0.32 0.29 0.21 0.08 0.09 0.09 0.06 0.06
0.00 0.00 0.00 0.00 0.00 0.00 0.00 0.00 0.00 0.00 0.00 0.00 0.00 0.00 0.00 0.00 0.00 0.01 0.02 0.03 0.03 0.04 0.11 0.27 0.41 0.33 0.24 0.13 0.13 0.14 0.13 0.10
0.00 0.00 0.00 0.00 0.00 0.00 0.00 0.00 0.00 0.00 0.00 0.00 0.00 0.00 0.00 0.00 0.01 0.01 0.03 0.03 0.04 0.12 0.21 0.32 0.35 0.49 0.27 0.17 0.21 0.22 0.12 0.06
0.00 0.00 0.00 0.00 0.00 0.00 0.00 0.00 0.00 0.00 0.00 0.00 0.00 0.00 0.00 0.00 0.01 0.01 0.02 0.03 0.04 0.08 0.21 0.41 0.44 0.35 0.49 0.21 0.22 0.25 0.19 0.11
0.00 0.00 0.00 0.00 0.00 0.00 0.00 0.00 0.00 0.00 0.00 0.00 0.00 0.00 0.01 0.01 0.00 0.01 0.01 0.02 0.04 0.10 0.19 0.32 0.41 0.28 0.34 0.37 0.26 0.30 0.24 0.17
0.00 0.00 0.00 0.00 0.00 0.00 0.00 0.00 0.00 0.02 0.00 0.00 0.01 0.01 0.01 0.01 0.01 0.01 0.01 0.01 0.02 0.11 0.21 0.32 0.43 0.30 0.31 0.46 0.45 0.37 0.30 0.22
0.00 0.00 0.00 0.00 0.00 0.00 0.00 0.01 0.01 0.00 0.01 0.01 0.01 0.01 0.01 0.01 0.01 0.01 0.01 0.01 0.02 0.10 0.20 0.33 0.28 0.38 0.35 0.43 0.56 0.54 0.53 0.44
0.05 0.03 0.01 0.00 0.00 0.00 0.01 0.01 0.01 0.00 0.01 0.01 0.01 0.01 0.01 0.01 0.01 0.01 0.01 0.00 0.02 0.07 0.14 0.30 0.27 0.21 0.34 0.41 0.54 0.59 0.70 0.61
0.07 0.01 0.00 0.00 0.00 0.00 0.01 0.02 0.02 0.05 0.03 0.02 0.01 0.01 0.01 0.01 0.02 0.02 0.01 0.01 0.03 0.10 0.06 0.16 0.22 0.13 0.23 0.31 0.40 0.54 0.65 0.76
0.01 0.00 0.00 0.00 0.01 0.01 0.02 0.02 0.04 0.07 0.04 0.04 0.02 0.03 0.02 0.01 0.01 0.02 0.01 0.02 0.03 0.07 0.08 0.07 0.17 0.13 0.24 0.30 0.40 0.44 0.59 0.71
0.00 0.00 0.00 0.00 0.02 0.03 0.05 0.07 0.09 0.07 0.06 0.06 0.04 0.03 0.02 0.02 0.02 0.02 0.01 0.01 0.02 0.06 0.14 0.13 0.16 0.12 0.17 0.23 0.39 0.43 0.54 0.65
0.07 0.00 0.00 0.01 0.04 0.05 0.09 0.13 0.11 0.09 0.07 0.07 0.07 0.05 0.03 0.02 0.04 0.02 0.01 0.00 0.00 0.03 0.07 0.10 0.17 0.21 0.16 0.16 0.18 0.31 0.38 0.48
0.04 0.00 0.00 0.00 0.01 0.05 0.06 0.10 0.11 0.08 0.08 0.07 0.08 0.07 0.07 0.04 0.04 0.04 0.02 0.01 0.00 0.00 0.01 0.03 0.07 0.15 0.16 0.14 0.15 0.16 0.26 0.34
0.00 0.00 0.00 0.01 0.03 0.09 0.14 0.16 0.13 0.09 0.07 0.05 0.05 0.03 0.04 0.06 0.05 0.05 0.03 0.01 0.01 0.01 0.01 0.00 0.01 0.02 0.17 0.11 0.12 0.14 0.12 0.21
0.00 0.00 0.00 0.00 0.07 0.11 0.24 0.23 0.21 0.13 0.09 0.08 0.05 0.03 0.04 0.02 0.03 0.06 0.05 0.02 0.02 0.02 0.01 0.00 0.00 0.00 0.04 0.06 0.12 0.10 0.13 0.16
0.00 0.00 0.00 0.00 0.02 0.09 0.13 0.27 0.28 0.31 0.22 0.13 0.11 0.09 0.04 0.02 0.01 0.04 0.08 0.05 0.04 0.02 0.02 0.01 0.01 0.01 0.03 0.04 0.11 0.04 0.09 0.10